SCP
0 0 0 0 0 0 0 0 0 0 0 0 0 0 0 0 0 0 0 0 0 0 0 0 0 0 0 0 0 0 0 0 0 0 0 0 0 0 0 0 0 0 0 0 0 0 0 0 0 0 0 0 0 0
0 0 0 0 0 0 0 0 0 0 0 0 0 0 0 0 0 0 0 0 0 0 0 0 0 0 0 0 0 0 0 0 0 0 0 0 0 0 0 0 0 0 0 0 0 0 0 0 0 0 0 0 0 0
0 0 0 0 0 0 0 0 0 0 0 0 0 0 0 0 0 0 0 0 0 0 0 0 0 0 0 0 0 0 0 0 0 0 0 0 0 0 0 0 0 0 0 0 0 0 0 0 0 0 0 0 0 0
0 0 0 0 0 0 0 0 0 0 0 0 0 0 0 0 0 0 0 0 0 0 0 0 0 0 0 0 0 0 0 0 0 0 0 0 0 0 0 0 0 0 0 0 0 0 0 0 0 0 0 0 0 0
0 0 0 0 0 0 0 0 0 0 0 0 0 0 0 0 0 0 0 0 0 0 0 0 0 0 0 0 0 0 0 0 0 0 0 0 0 0 0 0 0 0 0 0 0 0 0 0 0 0 0 0 0 0
0 0 0 0 0 0 0 0 0 0 0 0 0 0 0 0 0 0 0 0 0 0 0 0 0 0 0 0 0 0 0 0 0 0 0 0 0 0 0 0 0 0 0 0 0 0 0 0 0 0 0 0 0 0
0 0 0 0 0 0 0 0 0 0 0 0 0 0 0 0 0 0 0 0 0 0 0 0 0 0 0 0 0 0 0 0 0 0 0 0 0 0 0 0 0 0 0 0 0 0 0 0 0 0 0 0 0 0
0 0 0 0 0 0 0 0 0 0 0 0 0 0 0 0 0 0 0 0 0 0 0 0 0 0 0 0 0 0 0 0 0 0 0 0 0 0 0 0 0 0 0 0 0 0 0 0 0 0 0 0 0 0
0 0 0 0 0 0 0 0 0 0 0 0 0 0 0 0 0 0 0 0 0 0 0 0 0 0 0 0 0 0 0 0 0 0 0 0 0 0 0 0 0 0 0 0 0 0 0 0 0 0 0 0 0 0
0 0 0 0 0 0 0 0 0 0 0 0 0 0 0 0 0 0 0 0 0 0 0 0 0 0 0 0 0 0 0 0 0 0 0 0 0 0 0 0 0 0 0 0 0 0 0 0 0 0 0 0 0 0
-0 0 0 0 0 0 0 0 0 0 0 0 0 0 0 0 0 0 0 0 0 0 0 0 0 0 0 0 0 0 0 0 0 0 0 0 0 0 0 0 0 0 0 0 0 0 0 0 0 0 0 0 0 0
0 0 0 0 0 0 0 0 0 0 0 0 0 0 0 0 0 0 0 0 0 0 0 0 0 0 0 0 0 0 0 0 0 0 0 0 0 0 0 0 0 0 0 0 0 0 0 0 0 0 0 0 0 0
0 0 0 0 0 0 0 0 0 0 0 0 0 0 0 0 0 0 0 0 0 0 0 0 0 0 0 0 0 0 0 0 0 0 0 0 0 0 0 0 0 0 0 0 0 0 0 0 0 0 -0 0 0 0
0 0 0 0 0 0 0 -0 -0 0 0 0 0 0 0 0 0 0 0 0 0 0 0 0 0 0 0 0 0 0 0 0 0 0 0 0 0 0 0 0 0 0 0 0 0 0 0 0 0 -0 -0 0 0 0
0 0 0 0 0 0 -0 0 0 0 0 0 0 0 0 0 0 0 0 0 0 0 0 0 0 0 0 0 0 0 0 0 0 0 0 0 0 0 0 0 0 0 0 0 0 0 0 -0 -0 -0 0 0 0 -0
0 0 0 0 0 0 0 0 0 0 0 0 0 0 0 0 0 0 0 0 0 0 0 0 0 0 0 0 0 0 0 0 0 0 0 0 0 0 0 0 0 0 0 0 0 0 -0 -0 -0 -0 -0 -0 -0 -0
0 0 0 0 0 0 0 0 0 0 0 0 0 0 0 0 0 0 0 0 0 0 0 0 0 0 0 0 0 0 0 0 0 0 0 0 0 0 0 0 0 0 0 0 0 0 -0 -0 -0 -0 -0 0 -0 -0
0 0 0 0 0 0 0 0 0 0 0 0 0 0 0 0 0 0 0 0 0 0 0 0 0 0 0 0 0 0 0 0 0 0 0 0 0 0 0 0 0 0 0 0 0 0 0 -0 -0 -0 -0 0 -0 0
0 0 0 0 0 0 0 0 0 0 0 0 0 0 0 0 0 0 0 0 0 0 0 0 0 0 0 0 0 0 0 0 0 0 0 0 0 0 0 0 0 0 0 0 0 0 0 -0 -0 -0 -0 -0 -0 -0
0 0 0 0 0 0 0 0 0 0 0 0 0 0 0 0 0 0 0 0 0 0 0 0 0 0 0 0 0 0 0 0 0 0 0 0 0 0 0 -0 0 0 -0 -0 -0 -0 -0 0 -0 -0 -0 -0 -0 -0
0 0 0 0 0 0 0 0 0 0 0 0 0 0 0 0 0 0 0 0 0 0 0 0 0 0 0 0 0 0 0 0 0 0 0 0 0 0 0 -0 -0 -0 -0 -0 -0 -0 -0 -0 -0 -0 -0 -0 -0 -0
0 0 0 0 0 0 0 0 0 0 0 0 0 0 0 0 0 0 0 0 0 0 0 0 0 0 0 0 0 0 0 0 0 0 0 0 0 0 0 0 0 0 -0 -0 -0 -0 -0 -0 -0 0 -0 -0 -0 -0
0 0 0 0 0 0 0 0 0 0 0 0 0 0 0 0 0 0 0 0 0 0 0 0 0 0 0 -0 0 0 0 0 0 0 0 0 0 0 -0 -0 -0 -0 -0 -0 -0 -0 -0 0 0 0 -0 -0 0 0
0 0 0 0 0 0 0 0 0 0 0 0 0 0 0 0 0 0 0 0 0 0 0 0 0 0 0 0 0 0 0 0 0 -0 0 0 0 0 -0 -0 0 0 -0 -0 -0 0 0 -0 -0 0 -0 0 0 0
0 0 0 0 0 0 0 0 0 0 0 0 0 0 0 0 0 0 0 0 0 -0 -0 0 0 0 0 0 0 0 0 0 0 -0 0 -0 0 0 0 0 0 0 -0 0 0 -0 -0 -0 0 0 0 0 0 0
0 0 0 0 0 0 0 0 0 0 0 0 0 0 0 0 0 0 0 0 -0 -0 0 0 0 0 0 0 0 0 0 0 0 0 -0 -0 0 0 0 0 0 -0 0 0 0 0 0 0 0 0 0 0 0 0
0 0 0 0 -0 0 0 0 0 0 0 0 0 0 0 0 0 -0 -0 -0 0 0 0 0 0 0 0 0 0 0 0 0 0 0 -0 0 0 0 0 0 0 0 0 0 0 0 0 0 0 0 0 -0 0 0
0 0 -0 -0 -0 -0 0 0 -0 -0 -0 -0 -0 -0 -0 0 -0 -0 0 0 0 0 0 0 0 0 0 0 0 0 0 0 0 0 0 0 0 0 0 0 0 0 0 0 0 0 0 0 0 0 0 0 0 0
0 0 0 0 0 0 0 0 -0 0 -0 -0 0 0 -0 0 0 0 0 0 0 0 0 0 0 0 0 0 0 0 0 0 0 0 0 0 0 0 0 0 0 0 0 0 0 0 0 0 0 0 0 0 0 0
0 0 0 0 0 0 0 0 -0 0 -0 0 0 0 0 0 0 0 0 0 0 0 0 0 0 0 0 0 0 0 0 0 0 0 0 0 0 0 0 0 0 0 0 0 0 0 0 0 0 0 0 0 0 0
0 0 0 0 0 0 0 0 0 0 -0 -0 -0 0 0 0 0 0 0 0 0 0 0 0 0 0 0 0 0 0 0 0 -0 -0 0 0 0 0 0 0 0 0 0 0 0 0 0 0 0 0 0 0 0 0
0 0 0 0 0 0 -0 -0 -0 0 0 -0 0 0 0 0 0 0 0 0 0 0 0 0 0 0 0 0 0 0 0 0 0 0 0 0 0 0 0 -0 -0 -0 0 0 0 0 0 0 0 0 0 0 0 0
-0 -0 -0 0 -0 -0 0 -0 -0 -0 -0 0 0 0 0 0 0 0 0 0 0 0 0 0 0 0 0 0 0 0 0 0 0 0 0 0 0 0 0 0 0 0 0 0 0 0 0 0 0 0 0 0 0 0
Wind_Speed_500mb
37 37 37 38 40 40 39 38 47 57 63 50 56 56 50 50 46 43 38 34 30 13 6 3 7 9 13 9 8 7 9 3 6 5 7 8 7 7 4 6 14 12 11 7 5 4 11 12 3 9 13 15 24 15
38 36 39 42 43 40 37 36 39 47 65 65 43 54 60 46 45 42 38 28 28 23 9 13 5 8 9 14 14 9 8 7 11 6 2 2 3 4 3 3 9 3 12 9 13 11 8 6 2 17 19 28 17 16
45 41 41 38 39 37 36 37 37 36 51 56 47 52 60 47 46 45 37 32 22 17 22 27 20 16 18 20 19 12 8 10 8 6 10 5 3 5 3 4 3 10 4 6 7 4 20 33 26 27 19 20 15 17
46 43 38 38 38 35 34 36 37 36 42 40 44 42 62 45 45 48 49 28 27 11 8 7 18 22 18 9 17 21 23 16 15 7 4 4 4 6 6 6 6 8 2 8 1 7 22 20 22 17 11 6 9 9
44 42 41 39 38 37 34 35 38 38 39 41 37 39 67 49 46 45 47 31 38 15 11 18 19 17 12 11 14 14 17 15 12 6 4 4 4 5 4 2 5 9 7 7 10 17 11 12 7 3 4 15 21 11
47 41 39 39 40 38 36 32 34 38 41 39 35 34 60 65 62 34 25 43 41 28 6 5 12 31 21 16 17 11 5 11 9 7 6 6 7 6 4 5 8 13 14 10 10 22 12 7 1 10 18 16 12 12
44 39 37 38 36 33 32 31 33 35 46 42 45 42 52 68 67 35 13 28 50 36 10 6 7 21 26 17 16 12 14 7 7 7 4 5 4 7 4 8 11 18 26 21 16 27 19 14 8 12 10 18 15 17
40 37 34 34 35 32 32 31 32 34 52 46 49 42 53 56 50 48 25 42 55 25 10 7 3 15 30 14 11 14 12 8 8 6 5 6 5 5 6 19 22 22 17 15 22 18 12 10 12 17 16 19 20 26
34 35 35 35 33 32 33 32 34 37 55 43 44 62 54 52 39 44 22 50 56 15 16 10 11 8 35 13 10 10 10 3 5 6 7 12 4 8 15 25 20 7 16 12 18 10 3 4 17 26 22 23 30 27
29 30 32 32 33 29 30 30 31 42 43 33 64 28 16 31 20 38 22 11 8 13 11 8 12 6 31 14 7 11 8 6 3 9 11 5 7 32 32 27 21 10 9 11 15 18 16 20 22 23 23 34 26 16
24 25 25 28 33 32 27 34 33 45 46 50 22 10 43 53 29 8 6 6 9 7 14 15 23 9 24 10 6 8 6 5 3 8 9 4 6 18 31 46 46 24 16 13 13 11 13 17 19 28 27 24 21 21
23 26 28 29 31 36 35 32 39 47 39 38 39 42 28 13 9 8 8 8 10 12 24 26 45 29 16 15 9 11 6 4 8 12 5 5 6 16 29 32 33 26 20 19 14 7 13 16 24 38 31 28 20 17
21 19 15 24 26 30 35 36 54 43 64 65 22 12 13 8 7 16 17 8 8 21 27 37 16 17 12 8 9 6 6 8 8 4 7 7 24 41 39 30 20 7 13 15 16 23 27 26 39 32 29 21 18 18
15 16 13 16 23 28 40 42 58 76 57 11 12 9 6 9 11 11 13 11 16 32 58 63 23 11 11 7 8 7 8 7 5 6 9 7 46 42 28 16 7 14 17 16 24 45 42 42 37 26 24 21 17 16
16 14 14 16 20 38 39 88 81 63 10 10 14 11 15 16 15 24 27 33 38 67 64 43 17 14 5 7 5 4 7 8 10 7 7 39 47 39 32 19 13 32 30 35 36 38 37 36 35 30 25 17 18 16
6 8 18 26 25 56 99 86 61 30 6 2 4 5 13 7 7 21 37 41 67 70 58 20 8 7 5 8 7 10 9 10 7 6 44 49 42 33 25 16 15 33 32 35 33 32 35 35 29 23 26 20 17 15
18 14 45 86 93 94 78 65 28 6 2 4 8 12 11 4 21 33 50 56 72 55 7 10 10 13 7 6 8 9 9 8 26 40 50 45 39 34 25 22 16 31 38 33 33 33 33 24 23 25 25 23 20 13
56 77 81 92 72 56 43 15 9 5 3 5 6 9 15 10 43 45 49 66 59 21 12 8 12 5 9 9 5 6 15 30 35 41 44 37 34 29 23 22 21 18 39 39 30 33 31 29 23 20 18 22 20 16
55 65 71 63 54 33 8 6 6 5 4 4 21 15 20 36 42 49 56 51 36 27 18 6 6 4 4 4 16 28 27 31 31 42 36 28 30 27 26 26 26 23 36 40 30 32 30 29 24 20 16 18 14 17
48 47 41 45 39 8 7 5 4 6 8 8 15 33 29 29 44 50 45 40 35 19 7 4 5 1 17 35 41 34 31 33 35 35 36 36 33 30 31 31 27 31 35 36 35 30 30 33 28 27 22 18 18 19
36 31 22 18 7 6 6 5 7 5 12 8 17 32 20 30 35 40 35 32 13 7 5 4 14 44 36 34 27 22 16 16 22 26 36 32 24 17 18 26 23 27 35 37 41 40 38 39 34 31 27 26 22 23
23 12 10 14 8 6 6 8 5 10 7 8 20 21 14 9 11 11 20 6 7 8 5 20 40 38 33 25 20 13 13 17 17 17 19 22 28 25 24 23 28 30 34 41 45 44 39 31 29 27 27 26 20 25
18 12 9 8 5 8 5 10 8 7 6 3 8 5 5 5 10 17 4 12 7 16 14 27 33 27 24 24 16 11 13 12 12 11 15 16 20 19 23 23 21 30 35 37 33 35 33 26 30 32 33 23 28 27
8 5 6 6 7 5 4 5 4 8 7 5 3 6 6 7 18 5 2 5 23 19 23 33 30 33 26 21 19 16 15 10 6 19 21 25 26 25 22 21 22 21 20 24 27 26 29 29 25 18 27 29 24 26
5 2 2 5 6 7 5 4 2 6 4 3 3 4 3 7 4 5 6 10 26 27 26 40 40 33 32 30 22 17 16 18 13 32 25 22 21 21 25 18 19 16 24 14 23 25 26 28 31 34 27 24 31 27
1 5 7 13 6 5 8 9 9 7 7 6 5 12 7 4 1 6 7 19 28 31 47 42 36 30 23 19 17 18 17 21 21 29 34 26 21 24 26 22 20 21 20 23 28 33 30 21 25 31 25 26 26 22
4 8 11 14 9 7 6 4 29 8 7 5 3 4 5 6 8 5 10 23 31 29 32 32 26 20 19 17 17 20 19 27 24 26 36 27 19 21 21 15 24 19 25 26 25 30 24 17 17 26 24 23 27 21
9 6 5 14 11 8 6 7 7 3 3 1 5 6 7 4 6 5 15 22 30 25 18 14 10 15 17 15 15 23 30 29 22 27 25 28 17 14 16 25 20 25 21 20 19 15 14 16 22 17 17 22 17 15
6 5 7 9 10 13 8 4 8 11 21 9 4 4 4 5 18 27 17 11 12 11 8 5 8 10 15 17 22 25 32 30 40 32 27 30 26 25 21 19 13 20 27 26 29 20 14 9 3 12 15 13 20 19
4 8 8 12 8 5 10 3 22 23 17 16 14 35 37 29 18 10 13 11 6 6 5 5 5 9 15 27 26 22 26 29 31 27 29 31 25 31 28 24 21 13 20 33 22 20 21 17 11 18 20 22 16 21
21 18 10 9 8 12 16 22 29 33 30 33 32 34 21 14 12 7 5 11 8 7 10 10 10 17 23 20 24 21 26 20 16 12 17 23 28 25 29 24 23 17 12 24 22 22 19 19 19 27 26 20 20 24
6 9 11 6 6 10 9 8 7 7 6 14 13 11 15 8 5 5 2 5 11 10 11 19 22 21 20 27 24 20 20 19 19 12 14 22 19 15 18 19 18 23 16 23 23 22 21 23 14 17 26 27 19 23
28 27 24 13 8 6 8 5 6 7 6 7 5 6 6 8 5 6 5 8 10 13 21 31 21 18 23 22 26 21 18 18 22 18 15 12 10 10 10 11 18 18 21 25 17 15 16 21 21 24 23 27 21 17
Wind_Direction_500mb
275 272 262 260 268 274 270 267 253 238 234 239 227 231 223 219 221 222 217 204 211 229 244 101 156 153 134 132 138 149 90 356 55 104 147 225 188 242 156 170 169 157 147 196 107 150 274 200 87 174 177 145 129 101
273 274 267 265 268 270 273 266 263 245 232 241 242 212 217 217 219 216 217 200 214 229 219 199 161 171 198 188 155 139 133 149 170 101 195 127 7 41 115 212 350 131 170 184 168 215 237 207 164 166 163 127 100 109
264 268 268 263 266 268 268 261 262 249 227 227 225 208 206 210 216 214 198 186 200 224 239 246 238 230 229 231 231 174 144 164 159 129 157 168 119 124 128 223 350 349 119 118 92 53 82 112 106 124 138 127 121 135
256 261 266 268 266 268 267 264 254 247 227 230 224 230 202 208 209 210 201 184 183 194 189 162 194 193 188 210 228 216 177 144 145 149 128 133 157 179 200 194 159 221 113 160 288 118 104 104 112 118 113 125 170 153
251 254 258 265 261 262 268 264 251 244 229 227 219 226 199 194 206 210 206 183 188 199 176 153 166 180 181 181 171 190 194 167 147 156 98 206 211 99 352 51 237 180 188 158 216 185 157 162 143 176 168 151 149 161
246 251 256 259 263 261 263 259 250 239 223 220 225 224 203 196 201 214 220 207 192 189 178 139 143 169 169 168 161 174 157 161 165 162 171 183 158 137 132 228 268 102 54 8 182 160 159 163 160 108 135 144 152 157
242 247 257 257 256 257 253 255 247 235 208 210 215 229 197 207 201 201 209 179 187 182 179 106 98 165 168 145 145 155 166 129 145 142 172 154 112 175 145 200 251 272 317 314 220 162 117 95 113 174 170 149 152 142
240 243 252 251 248 251 250 244 239 225 197 202 204 206 195 190 198 208 218 172 176 169 169 128 140 144 172 154 151 166 152 156 178 177 175 182 153 167 252 240 248 267 282 125 111 120 114 103 152 159 159 156 157 152
239 246 248 248 244 246 235 245 222 204 190 195 202 190 184 188 202 200 176 170 169 162 158 164 142 184 170 142 130 144 161 107 172 186 229 153 198 217 225 230 231 163 154 123 136 129 110 254 160 167 177 172 162 153
246 245 238 235 229 233 241 218 199 194 183 191 176 166 171 196 157 176 157 205 170 178 169 154 165 165 165 135 140 138 161 178 166 234 171 166 246 241 236 231 218 199 200 200 190 173 178 156 182 183 168 167 164 154
233 234 225 224 224 231 214 195 194 183 179 168 145 131 140 144 154 130 104 148 194 175 178 180 173 143 171 132 148 174 169 168 156 251 143 235 266 250 248 236 230 229 210 204 197 189 214 199 176 176 158 158 161 151
229 227 238 234 230 202 192 187 189 182 187 160 145 138 124 110 116 157 183 177 212 200 185 163 165 156 134 134 120 171 157 123 233 162 120 248 255 161 140 145 153 165 181 196 203 205 184 170 159 158 163 157 150 149
229 227 215 195 210 183 186 193 185 170 144 128 128 152 165 152 159 183 180 181 187 170 163 149 136 132 122 115 106 127 153 203 144 93 217 221 154 141 140 149 142 192 246 256 234 206 184 164 165 170 152 146 163 164
223 218 220 232 204 196 175 183 178 152 140 127 144 137 176 183 212 196 178 184 189 156 151 147 127 119 123 99 147 139 219 112 187 215 224 186 155 146 159 169 136 127 119 131 144 155 152 148 153 155 156 157 153 157
193 197 191 216 194 176 184 153 154 153 118 144 168 183 202 212 207 210 199 144 140 143 141 128 89 99 111 128 178 160 169 215 208 217 202 158 159 165 165 160 142 150 134 140 139 146 153 153 156 166 156 158 158 154
191 267 239 176 176 165 161 157 148 140 113 132 242 194 237 173 221 187 155 131 143 138 130 101 100 108 170 160 158 198 171 215 219 202 166 163 170 175 169 160 150 168 159 151 156 155 160 158 156 151 154 156 176 185
71 99 142 147 140 146 143 140 125 81 132 219 221 238 263 323 131 138 142 141 149 137 111 110 119 190 144 171 192 174 195 197 160 161 169 172 172 174 181 176 156 170 162 147 146 162 166 163 164 160 168 176 179 193
104 131 144 146 146 138 123 102 91 141 229 283 331 60 121 110 128 132 138 150 148 118 112 166 143 138 158 174 191 207 141 151 162 170 170 174 179 180 194 191 185 178 184 170 168 172 178 182 181 187 190 182 184 207
123 131 137 142 144 119 95 35 37 67 314 11 114 130 120 112 135 147 147 150 145 121 112 76 94 145 196 181 136 129 145 160 165 176 171 177 185 189 190 198 201 197 187 182 178 182 190 189 199 201 191 195 204 214
137 142 150 143 137 50 64 64 72 56 54 42 79 104 114 110 120 135 143 143 138 121 65 89 192 183 145 142 144 144 145 143 149 157 169 179 187 197 202 214 217 206 203 203 204 200 205 200 207 214 219 227 221 225
119 111 99 83 136 87 81 77 64 86 77 65 93 97 80 109 117 116 120 132 113 107 156 171 132 145 138 141 148 146 155 186 203 208 195 182 194 193 193 197 210 203 204 207 208 207 207 211 212 213 229 237 230 223
129 120 69 57 64 100 64 29 93 97 78 90 72 92 83 78 102 116 143 94 145 196 180 143 151 150 149 154 154 137 153 180 182 183 191 197 197 205 209 213 211 215 212 202 201 207 204 201 208 224 235 231 234 238
129 59 39 56 83 65 50 39 52 57 90 76 81 73 77 106 159 155 137 183 225 216 222 170 160 166 154 145 140 133 147 151 179 199 201 197 182 176 168 173 179 182 184 192 200 207 209 211 220 237 230 220 233 233
134 1 32 33 62 86 93 38 77 101 83 57 85 98 127 144 152 142 230 216 214 215 206 177 170 162 165 174 182 192 194 182 159 156 150 152 153 158 162 174 184 188 190 188 204 210 222 216 228 221 208 214 220 212
357 278 87 328 125 127 143 139 148 83 104 130 145 115 169 157 114 190 218 232 201 197 190 176 178 183 183 187 197 211 207 217 193 178 176 173 165 163 169 183 203 201 197 188 194 197 205 203 214 210 216 230 214 222
315 218 168 190 168 178 159 168 179 136 124 166 235 131 115 98 240 243 216 186 193 198 185 177 180 184 197 215 215 212 215 197 206 192 185 181 183 181 177 190 191 183 184 188 203 195 190 205 213 211 229 225 221 248
282 237 203 207 192 187 136 97 132 112 173 129 169 106 123 192 223 241 151 176 173 167 175 187 199 207 225 237 229 217 199 198 210 197 192 196 200 202 200 197 196 173 186 193 212 211 225 223 229 217 222 247 253 231
272 2 210 185 194 201 110 118 143 82 11 75 155 170 188 204 187 130 145 147 168 178 191 191 208 242 236 240 241 202 188 189 196 188 198 192 192 200 205 201 182 196 190 187 198 214 220 234 230 253 224 202 229 256
280 198 111 70 68 75 75 69 96 215 219 211 191 99 174 104 135 135 125 112 118 146 159 222 275 238 218 205 182 181 184 189 184 185 192 193 199 198 202 206 201 222 211 209 213 221 236 225 260 207 199 184 186 211
176 195 72 51 10 79 67 104 124 158 159 171 115 119 118 112 108 134 158 167 168 186 215 246 212 206 190 180 175 172 186 187 197 206 200 204 206 198 202 207 209 206 220 215 225 230 231 225 257 215 204 187 205 218
120 111 104 76 83 81 95 97 101 102 101 113 133 133 130 131 158 199 199 200 177 215 266 192 168 160 155 166 184 181 172 166 162 178 197 212 208 211 222 226 202 202 238 211 218 241 239 240 266 219 214 225 222 215
86 112 121 110 134 157 151 140 115 107 112 130 141 141 151 156 183 202 210 224 218 226 197 169 151 142 172 162 167 177 175 176 171 170 181 187 199 192 186 190 192 214 218 205 215 233 233 225 211 200 210 213 227 233
120 124 114 101 126 167 199 185 137 151 147 152 120 129 144 164 194 211 289 232 206 179 165 156 135 135 147 141 164 161 166 159 157 159 163 171 168 159 172 199 182 218 208 210 214 205 203 206 223 234 239 244 236 227
Wind_Speed_850mb
37 37 37 38 40 40 39 38 47 57 63 50 56 56 50 50 46 43 38 34 30 13 6 3 7 9 13 9 8 7 9 3 6 5 7 8 7 7 4 6 14 12 11 7 5 4 11 12 3 9 13 15 24 15
38 36 39 42 43 40 37 36 39 47 65 65 43 54 60 46 45 42 38 28 28 23 9 13 5 8 9 14 14 9 8 7 11 6 2 2 3 4 3 3 9 3 12 9 13 11 8 6 2 17 19 28 17 16
45 41 41 38 39 37 36 37 37 36 51 56 47 52 60 47 46 45 37 32 22 17 22 27 20 16 18 20 19 12 8 10 8 6 10 5 3 5 3 4 3 10 4 6 7 4 20 33 26 27 19 20 15 17
46 43 38 38 38 35 34 36 37 36 42 40 44 42 62 45 45 48 49 28 27 11 8 7 18 22 18 9 17 21 23 16 15 7 4 4 4 6 6 6 6 8 2 8 1 7 22 20 22 17 11 6 9 9
44 42 41 39 38 37 34 35 38 38 39 41 37 39 67 49 46 45 47 31 38 15 11 18 19 17 12 11 14 14 17 15 12 6 4 4 4 5 4 2 5 9 7 7 10 17 11 12 7 3 4 15 21 11
47 41 39 39 40 38 36 32 34 38 41 39 35 34 60 65 62 34 25 43 41 28 6 5 12 31 21 16 17 11 5 11 9 7 6 6 7 6 4 5 8 13 14 10 10 22 12 7 1 10 18 16 12 12
44 39 37 38 36 33 32 31 33 35 46 42 45 42 52 68 67 35 13 28 50 36 10 6 7 21 26 17 16 12 14 7 7 7 4 5 4 7 4 8 11 18 26 21 16 27 19 14 8 12 10 18 15 17
40 37 34 34 35 32 32 31 32 34 52 46 49 42 53 56 50 48 25 42 55 25 10 7 3 15 30 14 11 14 12 8 8 6 5 6 5 5 6 19 22 22 17 15 22 18 12 10 12 17 16 19 20 26
34 35 35 35 33 32 33 32 34 37 55 43 44 62 54 52 39 44 22 50 56 15 16 10 11 8 35 13 10 10 10 3 5 6 7 12 4 8 15 25 20 7 16 12 18 10 3 4 17 26 22 23 30 27
29 30 32 32 33 29 30 30 31 42 43 33 64 28 16 31 20 38 22 11 8 13 11 8 12 6 31 14 7 11 8 6 3 9 11 5 7 32 32 27 21 10 9 11 15 18 16 20 22 23 23 34 26 16
24 25 25 28 33 32 27 34 33 45 46 50 22 10 43 53 29 8 6 6 9 7 14 15 23 9 24 10 6 8 6 5 3 8 9 4 6 18 31 46 46 24 16 13 13 11 13 17 19 28 27 24 21 21
23 26 28 29 31 36 35 32 39 47 39 38 39 42 28 13 9 8 8 8 10 12 24 26 45 29 16 15 9 11 6 4 8 12 5 5 6 16 29 32 33 26 20 19 14 7 13 16 24 38 31 28 20 17
21 19 15 24 26 30 35 36 54 43 64 65 22 12 13 8 7 16 17 8 8 21 27 37 16 17 12 8 9 6 6 8 8 4 7 7 24 41 39 30 20 7 13 15 16 23 27 26 39 32 29 21 18 18
15 16 13 16 23 28 40 42 58 76 57 11 12 9 6 9 11 11 13 11 16 32 58 63 23 11 11 7 8 7 8 7 5 6 9 7 46 42 28 16 7 14 17 16 24 45 42 42 37 26 24 21 17 16
16 14 14 16 20 38 39 88 81 63 10 10 14 11 15 16 15 24 27 33 38 67 64 43 17 14 5 7 5 4 7 8 10 7 7 39 47 39 32 19 13 32 30 35 36 38 37 36 35 30 25 17 18 16
6 8 18 26 25 56 99 86 61 30 6 2 4 5 13 7 7 21 37 41 67 70 58 20 8 7 5 8 7 10 9 10 7 6 44 49 42 33 25 16 15 33 32 35 33 32 35 35 29 23 26 20 17 15
18 14 45 86 93 94 78 65 28 6 2 4 8 12 11 4 21 33 50 56 72 55 7 10 10 13 7 6 8 9 9 8 26 40 50 45 39 34 25 22 16 31 38 33 33 33 33 24 23 25 25 23 20 13
56 77 81 92 72 56 43 15 9 5 3 5 6 9 15 10 43 45 49 66 59 21 12 8 12 5 9 9 5 6 15 30 35 41 44 37 34 29 23 22 21 18 39 39 30 33 31 29 23 20 18 22 20 16
55 65 71 63 54 33 8 6 6 5 4 4 21 15 20 36 42 49 56 51 36 27 18 6 6 4 4 4 16 28 27 31 31 42 36 28 30 27 26 26 26 23 36 40 30 32 30 29 24 20 16 18 14 17
48 47 41 45 39 8 7 5 4 6 8 8 15 33 29 29 44 50 45 40 35 19 7 4 5 1 17 35 41 34 31 33 35 35 36 36 33 30 31 31 27 31 35 36 35 30 30 33 28 27 22 18 18 19
36 31 22 18 7 6 6 5 7 5 12 8 17 32 20 30 35 40 35 32 13 7 5 4 14 44 36 34 27 22 16 16 22 26 36 32 24 17 18 26 23 27 35 37 41 40 38 39 34 31 27 26 22 23
23 12 10 14 8 6 6 8 5 10 7 8 20 21 14 9 11 11 20 6 7 8 5 20 40 38 33 25 20 13 13 17 17 17 19 22 28 25 24 23 28 30 34 41 45 44 39 31 29 27 27 26 20 25
18 12 9 8 5 8 5 10 8 7 6 3 8 5 5 5 10 17 4 12 7 16 14 27 33 27 24 24 16 11 13 12 12 11 15 16 20 19 23 23 21 30 35 37 33 35 33 26 30 32 33 23 28 27
8 5 6 6 7 5 4 5 4 8 7 5 3 6 6 7 18 5 2 5 23 19 23 33 30 33 26 21 19 16 15 10 6 19 21 25 26 25 22 21 22 21 20 24 27 26 29 29 25 18 27 29 24 26
5 2 2 5 6 7 5 4 2 6 4 3 3 4 3 7 4 5 6 10 26 27 26 40 40 33 32 30 22 17 16 18 13 32 25 22 21 21 25 18 19 16 24 14 23 25 26 28 31 34 27 24 31 27
1 5 7 13 6 5 8 9 9 7 7 6 5 12 7 4 1 6 7 19 28 31 47 42 36 30 23 19 17 18 17 21 21 29 34 26 21 24 26 22 20 21 20 23 28 33 30 21 25 31 25 26 26 22
4 8 11 14 9 7 6 4 29 8 7 5 3 4 5 6 8 5 10 23 31 29 32 32 26 20 19 17 17 20 19 27 24 26 36 27 19 21 21 15 24 19 25 26 25 30 24 17 17 26 24 23 27 21
9 6 5 14 11 8 6 7 7 3 3 1 5 6 7 4 6 5 15 22 30 25 18 14 10 15 17 15 15 23 30 29 22 27 25 28 17 14 16 25 20 25 21 20 19 15 14 16 22 17 17 22 17 15
6 5 7 9 10 13 8 4 8 11 21 9 4 4 4 5 18 27 17 11 12 11 8 5 8 10 15 17 22 25 32 30 40 32 27 30 26 25 21 19 13 20 27 26 29 20 14 9 3 12 15 13 20 19
4 8 8 12 8 5 10 3 22 23 17 16 14 35 37 29 18 10 13 11 6 6 5 5 5 9 15 27 26 22 26 29 31 27 29 31 25 31 28 24 21 13 20 33 22 20 21 17 11 18 20 22 16 21
21 18 10 9 8 12 16 22 29 33 30 33 32 34 21 14 12 7 5 11 8 7 10 10 10 17 23 20 24 21 26 20 16 12 17 23 28 25 29 24 23 17 12 24 22 22 19 19 19 27 26 20 20 24
6 9 11 6 6 10 9 8 7 7 6 14 13 11 15 8 5 5 2 5 11 10 11 19 22 21 20 27 24 20 20 19 19 12 14 22 19 15 18 19 18 23 16 23 23 22 21 23 14 17 26 27 19 23
28 27 24 13 8 6 8 5 6 7 6 7 5 6 6 8 5 6 5 8 10 13 21 31 21 18 23 22 26 21 18 18 22 18 15 12 10 10 10 11 18 18 21 25 17 15 16 21 21 24 23 27 21 17
Wind_Direction_850mb
275 272 262 260 268 274 270 267 253 238 234 239 227 231 223 219 221 222 217 204 211 229 244 101 156 153 134 132 138 149 90 356 55 104 147 225 188 242 156 170 169 157 147 196 107 150 274 200 87 174 177 145 129 101
273 274 267 265 268 270 273 266 263 245 232 241 242 212 217 217 219 216 217 200 214 229 219 199 161 171 198 188 155 139 133 149 170 101 195 127 7 41 115 212 350 131 170 184 168 215 237 207 164 166 163 127 100 109
264 268 268 263 266 268 268 261 262 249 227 227 225 208 206 210 216 214 198 186 200 224 239 246 238 230 229 231 231 174 144 164 159 129 157 168 119 124 128 223 350 349 119 118 92 53 82 112 106 124 138 127 121 135
256 261 266 268 266 268 267 264 254 247 227 230 224 230 202 208 209 210 201 184 183 194 189 162 194 193 188 210 228 216 177 144 145 149 128 133 157 179 200 194 159 221 113 160 288 118 104 104 112 118 113 125 170 153
251 254 258 265 261 262 268 264 251 244 229 227 219 226 199 194 206 210 206 183 188 199 176 153 166 180 181 181 171 190 194 167 147 156 98 206 211 99 352 51 237 180 188 158 216 185 157 162 143 176 168 151 149 161
246 251 256 259 263 261 263 259 250 239 223 220 225 224 203 196 201 214 220 207 192 189 178 139 143 169 169 168 161 174 157 161 165 162 171 183 158 137 132 228 268 102 54 8 182 160 159 163 160 108 135 144 152 157
242 247 257 257 256 257 253 255 247 235 208 210 215 229 197 207 201 201 209 179 187 182 179 106 98 165 168 145 145 155 166 129 145 142 172 154 112 175 145 200 251 272 317 314 220 162 117 95 113 174 170 149 152 142
240 243 252 251 248 251 250 244 239 225 197 202 204 206 195 190 198 208 218 172 176 169 169 128 140 144 172 154 151 166 152 156 178 177 175 182 153 167 252 240 248 267 282 125 111 120 114 103 152 159 159 156 157 152
239 246 248 248 244 246 235 245 222 204 190 195 202 190 184 188 202 200 176 170 169 162 158 164 142 184 170 142 130 144 161 107 172 186 229 153 198 217 225 230 231 163 154 123 136 129 110 254 160 167 177 172 162 153
246 245 238 235 229 233 241 218 199 194 183 191 176 166 171 196 157 176 157 205 170 178 169 154 165 165 165 135 140 138 161 178 166 234 171 166 246 241 236 231 218 199 200 200 190 173 178 156 182 183 168 167 164 154
233 234 225 224 224 231 214 195 194 183 179 168 145 131 140 144 154 130 104 148 194 175 178 180 173 143 171 132 148 174 169 168 156 251 143 235 266 250 248 236 230 229 210 204 197 189 214 199 176 176 158 158 161 151
229 227 238 234 230 202 192 187 189 182 187 160 145 138 124 110 116 157 183 177 212 200 185 163 165 156 134 134 120 171 157 123 233 162 120 248 255 161 140 145 153 165 181 196 203 205 184 170 159 158 163 157 150 149
229 227 215 195 210 183 186 193 185 170 144 128 128 152 165 152 159 183 180 181 187 170 163 149 136 132 122 115 106 127 153 203 144 93 217 221 154 141 140 149 142 192 246 256 234 206 184 164 165 170 152 146 163 164
223 218 220 232 204 196 175 183 178 152 140 127 144 137 176 183 212 196 178 184 189 156 151 147 127 119 123 99 147 139 219 112 187 215 224 186 155 146 159 169 136 127 119 131 144 155 152 148 153 155 156 157 153 157
193 197 191 216 194 176 184 153 154 153 118 144 168 183 202 212 207 210 199 144 140 143 141 128 89 99 111 128 178 160 169 215 208 217 202 158 159 165 165 160 142 150 134 140 139 146 153 153 156 166 156 158 158 154
191 267 239 176 176 165 161 157 148 140 113 132 242 194 237 173 221 187 155 131 143 138 130 101 100 108 170 160 158 198 171 215 219 202 166 163 170 175 169 160 150 168 159 151 156 155 160 158 156 151 154 156 176 185
71 99 142 147 140 146 143 140 125 81 132 219 221 238 263 323 131 138 142 141 149 137 111 110 119 190 144 171 192 174 195 197 160 161 169 172 172 174 181 176 156 170 162 147 146 162 166 163 164 160 168 176 179 193
104 131 144 146 146 138 123 102 91 141 229 283 331 60 121 110 128 132 138 150 148 118 112 166 143 138 158 174 191 207 141 151 162 170 170 174 179 180 194 191 185 178 184 170 168 172 178 182 181 187 190 182 184 207
123 131 137 142 144 119 95 35 37 67 314 11 114 130 120 112 135 147 147 150 145 121 112 76 94 145 196 181 136 129 145 160 165 176 171 177 185 189 190 198 201 197 187 182 178 182 190 189 199 201 191 195 204 214
137 142 150 143 137 50 64 64 72 56 54 42 79 104 114 110 120 135 143 143 138 121 65 89 192 183 145 142 144 144 145 143 149 157 169 179 187 197 202 214 217 206 203 203 204 200 205 200 207 214 219 227 221 225
119 111 99 83 136 87 81 77 64 86 77 65 93 97 80 109 117 116 120 132 113 107 156 171 132 145 138 141 148 146 155 186 203 208 195 182 194 193 193 197 210 203 204 207 208 207 207 211 212 213 229 237 230 223
129 120 69 57 64 100 64 29 93 97 78 90 72 92 83 78 102 116 143 94 145 196 180 143 151 150 149 154 154 137 153 180 182 183 191 197 197 205 209 213 211 215 212 202 201 207 204 201 208 224 235 231 234 238
129 59 39 56 83 65 50 39 52 57 90 76 81 73 77 106 159 155 137 183 225 216 222 170 160 166 154 145 140 133 147 151 179 199 201 197 182 176 168 173 179 182 184 192 200 207 209 211 220 237 230 220 233 233
134 1 32 33 62 86 93 38 77 101 83 57 85 98 127 144 152 142 230 216 214 215 206 177 170 162 165 174 182 192 194 182 159 156 150 152 153 158 162 174 184 188 190 188 204 210 222 216 228 221 208 214 220 212
357 278 87 328 125 127 143 139 148 83 104 130 145 115 169 157 114 190 218 232 201 197 190 176 178 183 183 187 197 211 207 217 193 178 176 173 165 163 169 183 203 201 197 188 194 197 205 203 214 210 216 230 214 222
315 218 168 190 168 178 159 168 179 136 124 166 235 131 115 98 240 243 216 186 193 198 185 177 180 184 197 215 215 212 215 197 206 192 185 181 183 181 177 190 191 183 184 188 203 195 190 205 213 211 229 225 221 248
282 237 203 207 192 187 136 97 132 112 173 129 169 106 123 192 223 241 151 176 173 167 175 187 199 207 225 237 229 217 199 198 210 197 192 196 200 202 200 197 196 173 186 193 212 211 225 223 229 217 222 247 253 231
272 2 210 185 194 201 110 118 143 82 11 75 155 170 188 204 187 130 145 147 168 178 191 191 208 242 236 240 241 202 188 189 196 188 198 192 192 200 205 201 182 196 190 187 198 214 220 234 230 253 224 202 229 256
280 198 111 70 68 75 75 69 96 215 219 211 191 99 174 104 135 135 125 112 118 146 159 222 275 238 218 205 182 181 184 189 184 185 192 193 199 198 202 206 201 222 211 209 213 221 236 225 260 207 199 184 186 211
176 195 72 51 10 79 67 104 124 158 159 171 115 119 118 112 108 134 158 167 168 186 215 246 212 206 190 180 175 172 186 187 197 206 200 204 206 198 202 207 209 206 220 215 225 230 231 225 257 215 204 187 205 218
120 111 104 76 83 81 95 97 101 102 101 113 133 133 130 131 158 199 199 200 177 215 266 192 168 160 155 166 184 181 172 166 162 178 197 212 208 211 222 226 202 202 238 211 218 241 239 240 266 219 214 225 222 215
86 112 121 110 134 157 151 140 115 107 112 130 141 141 151 156 183 202 210 224 218 226 197 169 151 142 172 162 167 177 175 176 171 170 181 187 199 192 186 190 192 214 218 205 215 233 233 225 211 200 210 213 227 233
120 124 114 101 126 167 199 185 137 151 147 152 120 129 144 164 194 211 289 232 206 179 165 156 135 135 147 141 164 161 166 159 157 159 163 171 168 159 172 199 182 218 208 210 214 205 203 206 223 234 239 244 236 227